Wind_Speed
28 27 29 24 23 20 19 19 20 18 19 19 18 14 11 10 10 7 7 7 6 8 9 6 5 8 7 4 5 7 7 5 6 6 4 3 1 2 1 4 4 2 4
28 27 27 27 26 24 23 21 22 21 18 19 20 16 10 12 9 9 11 8 6 6 8 7 5 6 7 6 8 10 8 4 4 7 4 1 1 5 7 7 3 1 4
31 30 28 28 25 29 26 25 22 21 17 15 18 15 12 15 13 14 15 9 6 7 8 11 12 11 10 8 6 8 7 4 4 5 5 2 2 1 1 2 2 2 2
32 31 33 32 28 27 28 27 25 22 19 16 17 17 15 18 14 13 13 12 11 10 9 12 15 16 15 12 8 8 7 6 4 3 3 3 3 1 1 3 3 2 4
33 34 34 35 31 26 27 26 24 24 24 18 18 18 21 20 18 13 16 16 15 13 13 11 12 14 13 12 11 8 7 7 7 4 4 4 3 2 1 3 2 2 6
34 35 33 32 29 27 27 26 24 22 22 23 20 20 23 21 21 18 17 16 16 15 15 13 13 12 12 12 13 10 8 8 9 9 8 5 3 1 1 2 3 2 6
34 38 36 32 30 30 30 30 29 27 25 24 22 23 23 26 21 17 17 20 21 21 16 15 14 13 11 11 13 12 10 10 10 11 10 8 8 3 3 3 4 5 5
35 37 35 32 30 31 33 32 32 31 28 26 24 24 24 29 25 20 18 17 17 18 16 16 16 15 13 12 11 13 15 14 13 11 9 8 10 8 5 5 3 5 7
30 34 33 33 34 29 38 34 30 30 27 28 27 27 27 30 30 25 23 22 18 19 18 15 15 15 14 12 13 12 12 13 13 13 11 9 9 11 9 7 5 6 9
28 29 31 32 31 29 30 31 29 28 28 26 26 28 29 30 32 29 26 25 23 20 20 18 20 21 17 14 14 13 12 13 13 11 13 10 9 11 9 7 7 5 4
26 29 32 33 35 30 28 31 33 32 24 27 26 26 28 30 31 32 28 27 25 21 23 20 17 18 20 20 20 17 16 14 14 14 15 13 12 11 12 11 8 8 8
21 23 27 26 31 29 28 26 29 34 33 32 35 27 27 29 30 31 33 29 27 26 27 25 21 19 18 21 23 23 20 17 16 15 14 13 13 13 13 15 15 12 11
18 17 17 20 24 23 22 21 24 26 28 26 23 33 34 31 29 28 28 32 29 28 29 26 22 20 21 21 23 24 22 20 18 17 18 18 15 16 15 13 15 13 11
20 18 16 16 20 21 25 24 25 23 25 23 23 25 33 31 29 27 26 28 29 31 30 29 25 24 23 22 26 26 23 21 21 21 19 18 18 16 16 17 18 17 17
23 19 16 15 16 20 21 22 21 23 30 29 31 18 18 27 29 29 28 29 29 29 32 29 27 26 25 26 26 28 27 26 25 24 22 21 21 18 17 17 18 18 17
25 22 16 14 14 14 14 13 16 19 26 28 30 29 25 22 30 29 28 27 29 28 31 33 31 30 30 26 26 27 27 26 26 25 24 22 22 20 20 19 18 17 19
25 20 16 12 9 8 8 9 11 14 17 20 20 23 29 25 21 24 28 34 32 28 28 28 28 27 26 26 26 26 28 28 28 27 26 24 23 22 22 19 17 19 21
24 22 19 15 10 6 4 7 11 12 12 13 14 15 17 17 25 24 23 29 33 35 31 30 32 31 32 29 27 25 27 29 30 29 26 26 25 23 22 20 19 18 18
26 25 22 16 11 7 6 6 6 7 6 4 5 10 10 11 15 23 27 30 34 31 29 29 33 33 33 32 31 28 31 31 30 30 30 29 30 29 27 25 22 21 20
28 29 23 18 12 10 11 9 8 7 7 8 7 5 5 7 12 13 17 21 26 27 30 31 31 30 30 28 33 34 32 33 35 33 32 33 34 30 31 30 28 25 24
34 29 24 17 13 10 11 11 11 11 11 10 9 8 8 8 9 11 13 19 21 21 23 25 29 30 30 28 31 34 35 37 39 38 36 35 34 37 36 34 33 29 25
36 28 23 18 13 10 9 9 9 8 9 10 11 12 12 12 13 12 12 11 15 17 16 19 21 41 38 38 33 34 35 34 34 37 38 38 37 38 36 35 32 28 24
36 28 23 18 14 10 6 4 4 5 8 8 8 7 7 7 8 10 11 12 13 13 14 14 16 21 28 29 33 31 29 29 32 37 39 39 39 39 36 36 33 29 34
34 28 23 19 15 11 7 4 1 5 4 7 8 9 8 9 7 7 7 8 9 10 11 14 17 18 20 23 24 26 26 25 27 25 24 27 30 34 34 35 39 40 41
33 27 24 19 15 12 9 3 1 1 5 6 5 9 10 8 4 2 0 1 3 4 3 2 2 4 7 12 17 22 23 21 22 22 22 19 20 23 31 36 33 39 43
30 26 21 18 17 16 10 2 1 3 6 8 8 11 11 8 6 4 2 2 2 3 4 5 6 8 9 10 8 4 8 11 14 15 14 16 18 22 29 27 25 27 29
Wind_Direction
210 210 210 209 207 199 190 181 178 186 191 197 199 202 198 199 206 219 202 187 203 204 194 206 206 209 225 254 292 293 306 306 329 350 347 102 11 133 265 139 165 18 251
208 204 206 213 215 208 201 195 190 190 196 206 208 214 226 219 220 221 211 200 209 218 212 224 247 258 258 259 274 281 287 295 344 347 346 293 65 102 128 107 118 330 347
202 205 206 210 217 220 217 205 203 201 204 205 206 217 229 213 233 231 220 218 233 253 249 251 254 259 259 260 257 277 273 260 301 312 328 308 27 224 272 209 216 265 233
214 211 210 211 217 217 217 216 213 207 206 203 215 221 219 222 231 233 219 232 238 264 252 261 260 253 270 271 255 261 250 231 276 247 273 335 329 324 316 266 279 214 211
217 215 214 216 216 215 216 217 219 217 208 212 216 222 225 230 230 238 237 238 251 257 243 266 264 253 264 261 250 258 236 226 233 257 255 291 338 253 301 95 28 248 216
220 218 216 215 218 220 223 220 219 222 222 220 223 226 227 227 227 238 242 243 249 253 250 261 262 265 257 270 248 254 243 236 241 256 274 264 245 133 217 294 283 270 221
217 217 214 215 222 221 220 219 221 223 224 229 231 234 230 226 233 243 250 262 262 248 256 261 268 263 269 285 240 242 244 248 243 257 263 241 239 246 265 270 253 240 225
215 220 216 217 218 218 218 221 227 231 225 230 233 239 239 230 233 238 242 256 255 250 254 255 268 265 268 270 243 245 244 250 245 243 260 249 239 244 268 263 272 245 218
217 221 224 217 216 224 222 231 226 227 229 235 235 239 239 231 234 242 244 245 252 257 251 253 262 263 260 262 248 244 240 247 248 241 254 250 246 229 251 235 268 258 237
224 225 220 217 213 228 226 222 228 236 247 247 242 242 241 239 236 241 247 245 248 254 252 251 258 260 254 253 249 241 234 246 244 250 256 256 256 230 241 262 243 259 269
223 223 226 225 217 227 228 233 231 231 248 237 238 241 245 242 245 238 241 242 243 249 241 246 258 256 256 258 248 240 236 248 254 260 264 260 256 247 236 241 262 258 260
221 228 232 231 220 224 230 234 230 230 246 252 249 235 253 244 241 240 241 244 241 242 239 245 248 248 257 247 246 242 241 247 256 269 266 265 261 253 246 245 254 263 264
213 224 231 226 217 219 225 232 238 243 237 244 240 240 244 241 238 238 243 241 244 243 242 243 241 244 248 251 247 245 248 253 259 264 263 260 256 251 248 247 252 259 266
191 204 212 213 223 225 232 245 252 248 228 224 229 253 243 241 240 240 245 246 244 248 243 241 242 245 249 263 247 251 249 253 256 264 265 253 252 254 246 253 256 260 266
194 191 187 198 213 226 239 247 245 234 230 238 248 256 241 233 239 241 242 247 245 243 245 247 249 254 250 254 253 249 251 258 259 262 265 256 256 254 249 258 259 259 258
184 184 187 200 206 224 233 233 234 229 233 236 250 254 246 258 244 237 237 244 248 247 245 246 250 253 255 256 252 252 254 256 257 258 257 259 259 254 253 257 253 253 252
174 176 190 201 207 209 223 242 229 227 233 244 251 248 259 262 237 237 239 241 243 244 246 248 250 251 252 251 253 254 255 254 256 257 254 252 257 262 261 262 256 256 251
176 184 191 193 209 237 222 189 209 220 231 242 250 251 265 256 251 233 241 245 239 239 242 247 254 259 256 256 254 255 257 259 258 257 258 251 251 259 263 266 268 262 250
183 187 191 193 195 215 215 199 184 179 212 240 260 254 270 263 251 244 250 257 240 235 243 248 256 261 261 258 256 255 256 257 258 254 251 247 250 253 256 259 264 262 257
186 189 186 187 195 196 200 203 208 216 239 258 263 251 260 257 252 248 250 245 234 248 253 265 253 261 260 258 255 254 256 256 258 257 254 252 251 254 251 252 255 261 262
188 188 183 189 184 185 189 205 222 235 241 244 252 260 272 280 286 276 264 251 256 263 263 259 257 263 260 261 264 263 264 263 261 259 258 255 256 255 254 253 251 258 263
181 183 180 177 175 171 184 209 230 242 238 244 251 264 274 275 274 273 269 266 254 256 264 265 255 257 266 264 271 270 268 265 261 260 259 258 256 257 257 253 252 258 254
178 178 175 171 163 153 165 202 239 263 266 237 236 244 269 291 279 263 259 259 255 250 252 251 246 240 243 252 260 267 266 263 259 257 256 256 258 256 253 254 246 245 253
176 171 175 173 168 162 161 160 274 305 320 262 226 241 261 286 292 284 266 253 248 245 245 250 249 253 259 264 262 264 264 264 259 261 262 261 261 251 249 252 253 239 244
174 176 180 181 182 187 187 198 313 130 4 349 270 234 248 279 308 286 239 161 124 112 115 163 241 269 272 271 268 263 263 265 258 256 255 261 256 243 242 245 250 230 222
177 179 183 191 196 196 195 253 224 333 332 335 307 248 239 254 258 271 252 210 153 114 102 91 83 73 55 47 32 309 282 263 253 255 257 253 259 241 236 239 230 224 229
Height
1523 1526 1530 1533 1537 1540 1542 1544 1546 1549 1552 1554 1555 1559 1561 1563 1565 1567 1567 1569 1571 1573 1575 1576 1576 1576 1577 1578 1578 1578 1577 1576 1575 1573 1572 1570 1569 1569 1568 1568 1569 1570 1571
1522 1525 1528 1531 1533 1537 1540 1543 1545 1548 1550 1553 1556 1558 1561 1562 1564 1566 1567 1568 1571 1573 1574 1574 1575 1576 1577 1578 1577 1577 1577 1576 1576 1574 1573 1573 1572 1570 1569 1569 1569 1570 1570
1517 1521 1524 1527 1531 1534 1538 1541 1544 1547 1550 1552 1555 1557 1558 1561 1563 1565 1566 1567 1569 1571 1572 1573 1575 1575 1576 1576 1576 1576 1576 1575 1576 1576 1576 1573 1571 1570 1570 1570 1570 1570 1571
1515 1518 1521 1524 1526 1529 1534 1539 1543 1545 1548 1551 1553 1555 1558 1560 1562 1563 1565 1566 1568 1569 1570 1572 1572 1574 1575 1574 1575 1575 1575 1575 1576 1576 1576 1574 1572 1571 1571 1570 1570 1570 1570
1509 1514 1516 1520 1523 1527 1530 1535 1539 1543 1546 1548 1551 1553 1556 1558 1561 1562 1564 1565 1566 1568 1569 1571 1570 1572 1573 1573 1573 1574 1574 1575 1575 1575 1575 1574 1572 1571 1571 1570 1570 1569 1569
1504 1510 1514 1519 1522 1526 1528 1532 1536 1540 1543 1546 1548 1550 1553 1555 1558 1560 1561 1564 1565 1567 1567 1569 1570 1571 1572 1572 1571 1572 1572 1574 1574 1575 1575 1574 1573 1572 1572 1571 1570 1569 1568
1500 1505 1511 1516 1518 1522 1523 1528 1531 1535 1539 1542 1545 1547 1549 1552 1554 1557 1558 1561 1563 1564 1566 1567 1568 1569 1570 1570 1569 1570 1571 1573 1574 1574 1573 1573 1573 1573 1571 1571 1570 1568 1568
1495 1501 1507 1512 1515 1518 1521 1524 1528 1531 1535 1538 1541 1544 1546 1548 1551 1554 1557 1558 1560 1562 1564 1565 1566 1567 1568 1569 1568 1569 1570 1572 1574 1573 1572 1571 1572 1572 1572 1571 1569 1568 1567
1492 1496 1502 1506 1511 1513 1516 1519 1524 1528 1531 1534 1537 1540 1542 1545 1548 1551 1554 1556 1558 1560 1563 1563 1565 1565 1565 1565 1567 1567 1568 1570 1570 1571 1570 1570 1570 1570 1570 1569 1568 1567 1567
1489 1493 1497 1501 1506 1506 1512 1516 1520 1524 1527 1530 1532 1535 1537 1540 1542 1546 1549 1551 1554 1556 1558 1560 1562 1563 1564 1564 1564 1564 1566 1567 1568 1569 1570 1569 1568 1567 1567 1567 1566 1566 1566
1485 1488 1491 1495 1500 1504 1508 1513 1517 1520 1522 1523 1527 1529 1531 1534 1537 1539 1542 1546 1548 1550 1553 1556 1557 1559 1561 1562 1562 1562 1563 1564 1566 1567 1568 1567 1566 1565 1565 1565 1565 1565 1565
1484 1485 1488 1492 1497 1501 1506 1508 1511 1514 1517 1518 1521 1523 1526 1528 1530 1532 1537 1540 1542 1545 1548 1551 1552 1554 1556 1558 1559 1560 1561 1561 1562 1563 1563 1563 1563 1563 1563 1563 1563 1563 1563
1483 1484 1487 1490 1495 1498 1502 1505 1507 1508 1511 1512 1514 1519 1522 1524 1525 1528 1531 1535 1538 1540 1544 1546 1548 1550 1553 1556 1556 1557 1558 1557 1558 1559 1559 1560 1560 1560 1561 1560 1560 1560 1561
1481 1484 1487 1490 1493 1496 1499 1501 1502 1503 1505 1509 1513 1515 1517 1519 1521 1523 1526 1529 1532 1535 1537 1540 1543 1545 1548 1549 1551 1553 1553 1554 1555 1555 1556 1556 1556 1557 1557 1558 1558 1558 1558
1480 1482 1485 1489 1492 1494 1496 1497 1498 1500 1502 1505 1508 1509 1511 1513 1515 1517 1521 1524 1526 1528 1532 1535 1538 1541 1542 1544 1546 1547 1548 1549 1551 1551 1552 1552 1553 1553 1554 1554 1554 1554 1555
1480 1483 1485 1488 1492 1493 1494 1495 1495 1497 1499 1501 1503 1505 1507 1509 1509 1512 1515 1519 1522 1524 1527 1529 1532 1535 1537 1539 1541 1542 1543 1544 1546 1547 1548 1549 1549 1550 1550 1549 1550 1550 1551
1477 1482 1485 1488 1491 1493 1494 1493 1494 1496 1497 1497 1498 1500 1502 1502 1504 1506 1509 1513 1516 1519 1521 1524 1527 1528 1530 1533 1535 1537 1538 1539 1540 1542 1543 1544 1544 1545 1545 1546 1546 1546 1547
1476 1482 1486 1489 1491 1492 1493 1494 1494 1496 1497 1497 1497 1497 1497 1498 1500 1501 1504 1508 1511 1514 1516 1518 1521 1523 1524 1528 1529 1531 1532 1533 1535 1536 1537 1538 1539 1540 1541 1541 1541 1541 1541
1474 1479 1484 1487 1490 1492 1493 1493 1494 1495 1496 1496 1496 1496 1495 1495 1496 1498 1500 1501 1503 1507 1510 1513 1515 1517 1518 1521 1523 1525 1525 1527 1527 1529 1530 1531 1532 1533 1535 1535 1536 1536 1536
1472 1476 1480 1483 1486 1489 1491 1493 1494 1494 1495 1496 1497 1496 1495 1495 1495 1495 1496 1496 1498 1501 1504 1506 1508 1511 1512 1513 1515 1517 1518 1518 1520 1521 1522 1523 1523 1525 1527 1528 1529 1529 1530
1471 1476 1480 1483 1484 1485 1488 1491 1492 1493 1494 1495 1495 1495 1495 1494 1492 1492 1492 1493 1495 1495 1498 1500 1502 1506 1506 1506 1507 1509 1509 1510 1511 1512 1512 1513 1515 1516 1518 1519 1521 1522 1524
1470 1475 1478 1482 1484 1485 1487 1489 1491 1491 1492 1493 1494 1494 1492 1492 1492 1491 1489 1490 1491 1492 1492 1491 1488 1492 1498 1499 1501 1501 1501 1501 1502 1502 1502 1503 1505 1507 1508 1510 1512 1516 1516
1467 1472 1476 1479 1483 1484 1487 1488 1489 1490 1490 1491 1491 1492 1492 1491 1490 1488 1488 1488 1488 1488 1488 1489 1491 1492 1496 1494 1494 1493 1492 1492 1491 1492 1492 1492 1494 1497 1499 1500 1503 1501 1504
1465 1470 1475 1479 1481 1484 1487 1489 1490 1489 1489 1488 1489 1490 1491 1490 1488 1486 1486 1486 1485 1485 1485 1487 1489 1490 1489 1488 1487 1487 1485 1486 1485 1484 1483 1483 1483 1487 1489 1492 1488 1489 1492
1462 1467 1472 1476 1479 1483 1486 1488 1489 1490 1489 1488 1487 1488 1488 1488 1486 1485 1484 1485 1484 1484 1484 1486 1486 1485 1485 1482 1480 1479 1479 1478 1479 1478 1478 1478 1478 1479 1482 1483 1485 1485 1484
1461 1465 1470 1474 1478 1481 1484 1486 1487 1489 1488 1487 1486 1486 1487 1487 1487 1486 1486 1486 1485 1484 1485 1485 1485 1483 1482 1479 1475 1474 1473 1473 1474 1473 1474 1474 1474 1475 1476 1476 1478 1478 1486